Simultaneous Nadir Overpasses (SNOs) Predictions

Prediction of SNOs between GOES-15 and TERRA Satellite Orbit:

Table of predicted SNOs for the next 14.0 days since TLE Epoch: 6/11/2022
Index Date Time (GOES-15) GOES-15 Lat,Lon TERRA Lat,Lon Distance(km) Time Diff (sec)
1 06/11/2022 06:46:07 0.19,-128.27 0.39,-127.17 123.69 80
2 06/11/2022 19:10:01 -0.17,-128.31 0.69,-132.33 458.03 80
3 06/13/2022 06:33:53 0.19,-128.30 1.03,-124.22 463.23 80
4 06/13/2022 18:57:48 -0.17,-128.34 0.05,-129.39 118.60 80
5 06/15/2022 18:42:54 -0.18,-128.37 -0.60,-126.44 219.92 80
6 06/16/2022 07:06:56 0.16,-128.35 -0.52,-131.63 372.57 80
7 06/18/2022 06:54:41 0.17,-128.37 0.08,-128.67 34.67 80
8 06/20/2022 06:39:48 0.19,-128.39 0.75,-125.72 303.63 80
9 06/20/2022 19:03:41 -0.16,-128.43 0.39,-130.87 278.89 80
10 06/22/2022 18:48:47 -0.17,-128.45 -0.29,-127.93 59.50 80
11 06/24/2022 18:36:32 -0.17,-128.47 -0.92,-124.97 397.54 80
